07-05-2023, 00:00:02,    209,    0.0,   10.3,   0.00,   0.00, 1010.6,    0.3, -999.0
07-05-2023, 00:00:11,    209,    0.0,   10.3,   0.00,   0.00, 1010.5,    0.2, -999.0
07-05-2023, 00:00:22,    209,    0.0,   10.3,   0.00,   0.00, 1010.5,    0.2, -999.0
07-05-2023, 00:00:32,    209,    0.0,   10.3,   0.00,   0.00, 1010.5,    0.1, -999.0
07-05-2023, 00:00:41,    209,    0.0,   10.3,   0.00,   0.00, 1010.5,    0.1, -999.0
07-05-2023, 00:00:51,    209,    0.2,   10.3,   0.00,   0.00, 1010.6,    0.5, -999.0
07-05-2023, 00:01:02,    209,    0.0,   10.3,   0.00,   0.00, 1010.6,    0.4, -999.0
07-05-2023, 00:01:12,    209,    0.0,   10.3,   0.00,   0.00, 1010.5,    0.4, -999.0
07-05-2023, 00:01:21,    209,    0.0,   10.3,   0.00,   0.00, 1010.5,    0.4, -999.0
07-05-2023, 00:01:31,    209,    0.0,   10.3,   0.00,   0.00, 1010.6,    0.3, -999.0
07-05-2023, 00:01:42,    209,    0.0,   10.2,   0.00,   0.00, 1010.5,    0.3, -999.0
07-05-2023, 00:01:51,    209,    0.0,   10.3,   0.00,   0.00, 1010.6,    0.4, -999.0
07-05-2023, 00:02:01,    209,    0.0,   10.3,   0.00,   0.00, 1010.5,    0.2, -999.0
07-05-2023, 00:02:12,    209,    0.0,   10.3,   0.00,   0.00, 1010.6,    0.2, -999.0
07-05-2023, 00:02:24,    212,    0.2,   10.3,   0.00,   0.00, 1010.6,    0.4, -999.0
07-05-2023, 00:02:31,    212,    0.5,   10.4,   0.00,   0.00, 1010.7,    0.6, -999.0
07-05-2023, 00:02:41,    212,    0.5,   10.4,   0.00,   0.00, 1010.7,    0.3, -999.0
07-05-2023, 00:02:51,    212,    0.4,   10.3,   0.00,   0.00, 1010.7,    0.4, -999.0
07-05-2023, 00:03:01,    211,    0.0,   10.3,   0.00,   0.00, 1010.6,    0.2, -999.0
07-05-2023, 00:03:11,    210,    0.0,   10.3,   0.00,   0.00, 1010.6,    0.4, -999.0
07-05-2023, 00:03:21,    211,    0.0,   10.3,   0.00,   0.00, 1010.6,    0.2, -999.0
07-05-2023, 00:03:31,    211,    0.1,   10.3,   0.00,   0.00, 1010.6,    0.4, -999.0
07-05-2023, 00:03:41,    210,    0.4,   10.4,   0.00,   0.00, 1010.7,    0.1, -999.0
07-05-2023, 00:03:51,    211,    0.9,   10.4,   0.00,   0.00, 1010.7,    0.6, -999.0
07-05-2023, 00:04:01,    212,    0.3,   10.3,   0.00,   0.00, 1010.7,    0.5, -999.0
07-05-2023, 00:04:11,    212,    0.3,   10.4,   0.00,   0.00, 1010.7,    0.1, -999.0
07-05-2023, 00:04:21,    212,    0.0,   10.3,   0.00,   0.00, 1010.6,    0.3, -999.0
07-05-2023, 00:04:31,    212,    0.0,   10.2,   0.00,   0.00, 1010.6,    0.5, -999.0
07-05-2023, 00:04:41,    211,    0.7,   10.3,   0.00,   0.00, 1010.7,    0.6, -999.0
07-05-2023, 00:04:51,    211,    0.0,   10.3,   0.00,   0.00, 1010.6,    0.4, -999.0
07-05-2023, 00:05:01,    211,    0.0,   10.3,   0.00,   0.00, 1010.6,    0.2, -999.0
07-05-2023, 00:05:11,    211,    0.0,   10.3,   0.00,   0.00, 1010.6,    0.4, -999.0
07-05-2023, 00:05:21,    211,    0.0,   10.3,   0.00,   0.00, 1010.6,    0.2, -999.0
07-05-2023, 00:05:31,    211,    0.0,   10.3,   0.00,   0.00, 1010.6,    0.5, -999.0
07-05-2023, 00:05:41,    211,    0.0,   10.3,   0.00,   0.00, 1010.6,    0.2, -999.0
07-05-2023, 00:05:51,    211,    0.0,   10.3,   0.00,   0.00, 1010.6,    0.3, -999.0
07-05-2023, 00:06:01,    212,    0.0,   10.2,   0.00,   0.00, 1010.6,    0.3, -999.0
07-05-2023, 00:06:11,    212,    0.0,   10.3,   0.00,   0.00, 1010.6,    0.4, -999.0
07-05-2023, 00:06:21,    211,    0.2,   10.3,   0.00,   0.00, 1010.7,    0.4, -999.0
07-05-2023, 00:06:31,    211,    0.3,   10.4,   0.00,   0.00, 1010.7,    0.5, -999.0
07-05-2023, 00:06:41,    215,    0.0,   10.3,   0.00,   0.00, 1010.6,    0.5, -999.0
07-05-2023, 00:06:51,    214,    0.2,   10.3,   0.00,   0.00, 1010.7,    0.7, -999.0
07-05-2023, 00:07:01,    214,    0.0,   10.3,   0.00,   0.00, 1010.7,    0.2, -999.0
07-05-2023, 00:07:11,    202,    0.6,   10.3,   0.00,   0.00, 1010.7,    0.4, -999.0
07-05-2023, 00:07:21,    202,    0.3,   10.4,   0.00,   0.00, 1010.7,    0.4, -999.0
07-05-2023, 00:07:31,    203,    0.0,   10.3,   0.00,   0.00, 1010.7,    0.4, -999.0
07-05-2023, 00:07:41,    203,    0.4,   10.4,   0.00,   0.00, 1010.7,    0.4, -999.0
07-05-2023, 00:07:51,    205,    0.3,   10.4,   0.00,   0.00, 1010.7,    0.4, -999.0
07-05-2023, 00:08:01,    206,    0.6,   10.4,   0.00,   0.00, 1010.7,    0.3, -999.0
07-05-2023, 00:08:11,    207,    0.4,   10.3,   0.00,   0.00, 1010.7,    0.5, -999.0
07-05-2023, 00:08:21,    207,    0.6,   10.3,   0.00,   0.00, 1010.7,    0.4, -999.0
07-05-2023, 00:08:31,    203,    0.0,   10.3,   0.00,   0.00, 1010.6,    0.3, -999.0
07-05-2023, 00:08:41,    207,    0.0,   10.3,   0.00,   0.00, 1010.6,    0.2, -999.0
07-05-2023, 00:08:51,    207,    0.0,   10.3,   0.00,   0.00, 1010.6,    0.3, -999.0
07-05-2023, 00:09:00,    207,    0.2,   10.3,   0.00,   0.00, 1010.7,    0.3, -999.0
07-05-2023, 00:09:11,    207,    0.0,   10.5,   0.00,   0.00, 1010.6,    0.5, -999.0
07-05-2023, 00:09:21,    207,    0.0,   10.3,   0.00,   0.00, 1010.6,    0.4, -999.0
07-05-2023, 00:09:31,    206,    0.2,   10.4,   0.00,   0.00, 1010.7,    0.4, -999.0
07-05-2023, 00:09:40,    206,    0.0,   10.3,   0.00,   0.00, 1010.6,    0.4, -999.0
07-05-2023, 00:09:51,    207,    0.0,   10.3,   0.00,   0.00, 1010.6,    0.4, -999.0
07-05-2023, 00:10:01,    207,    0.0,   10.3,   0.00,   0.00, 1010.6,    0.6, -999.0
07-05-2023, 00:10:10,    207,    0.0,   10.2,   0.00,   0.00, 1010.6,    0.3, -999.0
07-05-2023, 00:10:20,    220,    2.0,   10.4,   0.00,   0.00, 1010.7,    0.2, -999.0
07-05-2023, 00:10:31,    218,    0.7,   10.4,   0.00,   0.00, 1010.7,    0.4, -999.0
07-05-2023, 00:10:40,    218,    0.0,   10.3,   0.00,   0.00, 1010.6,    0.4, -999.0
07-05-2023, 00:10:50,    218,    0.0,   10.3,   0.00,   0.00, 1010.6,    0.5, -999.0
07-05-2023, 00:11:00,    218,    0.0,   10.4,   0.00,   0.00, 1010.7,    0.3, -999.0
07-05-2023, 00:11:11,    218,    0.1,   10.3,   0.00,   0.00, 1010.7,    0.3, -999.0
07-05-2023, 00:11:20,    218,    0.0,   10.1,   0.00,   0.00, 1010.6,    0.4, -999.0
07-05-2023, 00:11:30,    218,    0.0,   10.3,   0.00,   0.00, 1010.6,    0.5, -999.0
07-05-2023, 00:11:41,    218,    0.0,   10.2,   0.00,   0.00, 1010.6,    0.3, -999.0
07-05-2023, 00:11:50,    217,    0.0,   10.0,   0.00,   0.00, 1010.6,    0.5, -999.0
07-05-2023, 00:12:00,    218,    0.0,   10.2,   0.00,   0.00, 1010.6,    0.4, -999.0
07-05-2023, 00:12:10,    212,    1.5,   10.4,   0.00,   0.00, 1010.7,    0.4, -999.0
07-05-2023, 00:12:21,    214,    1.4,   10.4,   0.00,   0.00, 1010.7,    0.3, -999.0
07-05-2023, 00:12:30,    213,    0.3,   10.4,   0.00,   0.00, 1010.7,    0.4, -999.0
07-05-2023, 00:12:40,    212,    0.0,   10.4,   0.00,   0.00, 1010.7,    0.3, -999.0
07-05-2023, 00:12:50,    215,    0.4,   10.4,   0.00,   0.00, 1010.7,    0.5, -999.0
07-05-2023, 00:13:00,    214,    0.6,   10.4,   0.00,   0.00, 1010.7,    0.5, -999.0
07-05-2023, 00:13:10,    215,    0.0,   10.3,   0.00,   0.00, 1010.6,    0.4, -999.0
07-05-2023, 00:13:20,    215,    0.0,   10.3,   0.00,   0.00, 1010.6,    0.3, -999.0
07-05-2023, 00:13:30,    214,    0.0,   10.3,   0.00,   0.00, 1010.6,    0.3, -999.0
07-05-2023, 00:13:40,    214,    0.0,   10.3,   0.00,   0.00, 1010.6,    0.4, -999.0
07-05-2023, 00:13:50,    214,    0.0,   10.3,   0.00,   0.00, 1010.6,    0.4, -999.0
07-05-2023, 00:14:00,    215,    0.0,   10.3,   0.00,   0.00, 1010.6,    0.3, -999.0
07-05-2023, 00:14:10,    215,    0.0,   10.3,   0.00,   0.00, 1010.6,    0.3, -999.0
07-05-2023, 00:14:20,    215,    0.0,   10.3,   0.00,   0.00, 1010.6,    0.4, -999.0
07-05-2023, 00:14:30,    214,    0.0,   10.3,   0.00,   0.00, 1010.6,    0.2, -999.0
07-05-2023, 00:14:40,    215,    0.0,   10.4,   0.00,   0.00, 1010.6,    0.2, -999.0
07-05-2023, 00:14:50,    214,    0.2,   10.4,   0.00,   0.00, 1010.7,    0.4, -999.0
07-05-2023, 00:15:00,    214,    0.0,   10.4,   0.00,   0.00, 1010.6,    0.3, -999.0
07-05-2023, 00:15:10,    214,    0.0,   10.3,   0.00,   0.00, 1010.7,    0.3, -999.0
07-05-2023, 00:15:20,    214,    0.0,   10.3,   0.00,   0.00, 1010.6,    0.4, -999.0
07-05-2023, 00:15:30,    214,    0.0,   10.3,   0.00,   0.00, 1010.6,    0.3, -999.0
07-05-2023, 00:15:40,    214,    0.2,   10.4,   0.00,   0.00, 1010.7,    0.6, -999.0
07-05-2023, 00:15:50,    212,    0.0,   10.3,   0.00,   0.00, 1010.6,    0.5, -999.0
07-05-2023, 00:16:00,    212,    0.4,   10.4,   0.00,   0.00, 1010.7,    0.9, -999.0
07-05-2023, 00:16:10,    212,    0.6,   10.4,   0.00,   0.00, 1010.7,    0.4, -999.0
07-05-2023, 00:16:20,    208,    0.6,   10.4,   0.00,   0.00, 1010.7,    0.0, -999.0
07-05-2023, 00:16:30,    208,    0.0,   10.2,   0.00,   0.00, 1010.6,    0.3, -999.0
07-05-2023, 00:16:40,    209,    0.0,   10.3,   0.00,   0.00, 1010.6,    0.4, -999.0
07-05-2023, 00:16:50,    209,    0.4,   10.4,   0.00,   0.00, 1010.7,    0.9, -999.0
07-05-2023, 00:17:00,    210,    0.6,   10.5,   0.00,   0.00, 1010.7,    0.2, -999.0
07-05-2023, 00:17:10,    210,    0.0,   10.3,   0.00,   0.00, 1010.6,    0.3, -999.0
07-05-2023, 00:17:20,    210,    0.0,   10.3,   0.00,   0.00, 1010.6,    0.3, -999.0
07-05-2023, 00:17:30,    210,    0.0,   10.3,   0.00,   0.00, 1010.6,    0.4, -999.0
07-05-2023, 00:17:40,    210,    0.0,   10.3,   0.00,   0.00, 1010.6,    0.3, -999.0
07-05-2023, 00:17:50,    215,    0.0,   10.3,   0.00,   0.00, 1010.6,    0.3, -999.0
07-05-2023, 00:17:59,    216,    0.1,   10.3,   0.00,   0.00, 1010.6,    0.4, -999.0
07-05-2023, 00:18:10,    216,    0.0,   10.3,   0.00,   0.00, 1010.6,    0.5, -999.0
07-05-2023, 00:18:20,    216,    0.3,   10.3,   0.00,   0.00, 1010.7,    0.3, -999.0
07-05-2023, 00:18:30,    210,    0.9,   10.5,   0.00,   0.00, 1010.7,    0.1, -999.0
07-05-2023, 00:18:39,    209,    0.4,   10.4,   0.00,   0.00, 1010.7,    0.4, -999.0
07-05-2023, 00:18:50,    209,    0.0,   10.3,   0.00,   0.00, 1010.6,    0.5, -999.0
07-05-2023, 00:19:00,    210,    0.0,   10.3,   0.00,   0.00, 1010.6,    0.5, -999.0
07-05-2023, 00:19:09,    209,    0.0,   10.4,   0.00,   0.00, 1010.6,    0.4, -999.0
07-05-2023, 00:19:20,    211,    0.0,   10.3,   0.00,   0.00, 1010.6,    0.6, -999.0
07-05-2023, 00:19:30,    210,    0.0,   10.3,   0.00,   0.00, 1010.6,    0.3, -999.0
07-05-2023, 00:19:39,    210,    0.0,   10.3,   0.00,   0.00, 1010.6,    0.3, -999.0
07-05-2023, 00:19:49,    210,    0.0,   10.3,   0.00,   0.00, 1010.6,    0.2, -999.0
07-05-2023, 00:20:00,    210,    0.0,   10.3,   0.00,   0.00, 1010.6,    0.4, -999.0
07-05-2023, 00:20:10,    209,    0.0,   10.3,   0.00,   0.00, 1010.6,    0.2, -999.0
07-05-2023, 00:20:19,    209,    0.0,   10.3,   0.00,   0.00, 1010.6,    0.4, -999.0
07-05-2023, 00:20:29,    210,    0.0,   10.3,   0.00,   0.00, 1010.6,    0.3, -999.0
07-05-2023, 00:20:40,    209,    0.0,   10.2,   0.00,   0.00, 1010.6,    0.5, -999.0
07-05-2023, 00:20:49,    215,    1.1,   10.4,   0.00,   0.00, 1010.7,    0.3, -999.0
07-05-2023, 00:20:59,    207,    0.5,   10.4,   0.00,   0.00, 1010.7,    0.5, -999.0
07-05-2023, 00:21:09,    206,    0.2,   10.4,   0.00,   0.00, 1010.7,    0.4, -999.0
07-05-2023, 00:21:20,    207,    0.0,   10.4,   0.00,   0.00, 1010.6,    0.3, -999.0
07-05-2023, 00:21:29,    206,    0.0,   10.4,   0.00,   0.00, 1010.6,    0.4, -999.0
07-05-2023, 00:21:39,    206,    0.0,   10.4,   0.00,   0.00, 1010.6,    0.4, -999.0
07-05-2023, 00:21:49,    206,    0.0,   10.4,   0.00,   0.00, 1010.6,    0.6, -999.0
07-05-2023, 00:21:59,    173,    0.6,   10.4,   0.00,   0.00, 1010.7,    0.3, -999.0
07-05-2023, 00:22:09,    172,    0.5,   10.4,   0.00,   0.00, 1010.7,    0.1, -999.0
07-05-2023, 00:22:19,    173,    0.1,   10.4,   0.00,   0.00, 1010.7,    0.3, -999.0
07-05-2023, 00:22:29,    174,    0.0,   10.4,   0.00,   0.00, 1010.6,    0.3, -999.0
07-05-2023, 00:22:39,    178,    0.2,   10.4,   0.00,   0.00, 1010.7,    0.5, -999.0
07-05-2023, 00:22:49,    179,    0.5,   10.4,   0.00,   0.00, 1010.8,    0.4, -999.0
07-05-2023, 00:22:59,    202,    0.6,   10.5,   0.00,   0.00, 1010.7,    0.5, -999.0
07-05-2023, 00:23:09,    202,    0.0,   10.5,   0.00,   0.00, 1010.6,    0.3, -999.0
07-05-2023, 00:23:19,    204,    0.3,   10.4,   0.00,   0.00, 1010.7,    0.3, -999.0
07-05-2023, 00:23:29,    203,    0.4,   10.4,   0.00,   0.00, 1010.7,    0.3, -999.0
07-05-2023, 00:23:39,    203,    0.2,   10.5,   0.00,   0.00, 1010.7,    0.3, -999.0
07-05-2023, 00:23:49,    203,    0.0,   10.4,   0.00,   0.00, 1010.6,    0.4, -999.0
07-05-2023, 00:23:59,    203,    0.0,   10.4,   0.00,   0.00, 1010.6,    0.2, -999.0
07-05-2023, 00:24:09,    203,    0.2,   10.4,   0.00,   0.00, 1010.7,    0.5, -999.0
07-05-2023, 00:24:19,    203,    0.1,   10.4,   0.00,   0.00, 1010.7,    0.3, -999.0
07-05-2023, 00:24:29,    205,    0.0,   10.4,   0.00,   0.00, 1010.6,    0.6, -999.0
07-05-2023, 00:24:39,    203,    0.0,   10.5,   0.00,   0.00, 1010.6,    0.3, -999.0
07-05-2023, 00:24:49,    202,    0.0,   10.5,   0.00,   0.00, 1010.6,    0.4, -999.0
07-05-2023, 00:24:59,    202,    0.0,   10.4,   0.00,   0.00, 1010.6,    0.3, -999.0
07-05-2023, 00:25:09,    203,    0.0,   10.4,   0.00,   0.00, 1010.6,    0.3, -999.0
07-05-2023, 00:25:19,    203,    0.0,   10.4,   0.00,   0.00, 1010.6,    0.2, -999.0
07-05-2023, 00:25:29,    203,    0.0,   10.4,   0.00,   0.00, 1010.6,    0.5, -999.0
07-05-2023, 00:25:39,    205,    0.0,   10.4,   0.00,   0.00, 1010.6,    0.4, -999.0
07-05-2023, 00:25:49,    205,    0.0,   10.5,   0.00,   0.00, 1010.6,    0.2, -999.0
07-05-2023, 00:25:59,    205,    0.0,   10.5,   0.00,   0.00, 1010.6,    0.4, -999.0
07-05-2023, 00:26:09,    205,    0.0,   10.4,   0.00,   0.00, 1010.6,    0.4, -999.0
07-05-2023, 00:26:19,    205,    0.0,   10.5,   0.00,   0.00, 1010.6,    0.6, -999.0
07-05-2023, 00:26:29,    205,    0.0,   10.5,   0.00,   0.00, 1010.6,    0.4, -999.0
07-05-2023, 00:26:39,    204,    0.0,   10.5,   0.00,   0.00, 1010.6,    0.0, -999.0
07-05-2023, 00:26:49,    205,    0.0,   10.5,   0.00,   0.00, 1010.6,    0.0, -999.0
07-05-2023, 00:26:59,    205,    0.0,   10.4,   0.00,   0.00, 1010.6,    0.1, -999.0
07-05-2023, 00:27:09,    204,    0.0,   10.5,   0.00,   0.00, 1010.6,    0.4, -999.0
07-05-2023, 00:27:19,    205,    0.0,   10.4,   0.00,   0.00, 1010.6,    0.0, -999.0
07-05-2023, 00:27:29,    205,    0.0,   10.5,   0.00,   0.00, 1010.6,    0.0, -999.0
07-05-2023, 00:27:39,    205,    0.0,   10.5,   0.00,   0.00, 1010.6,    0.1, -999.0
07-05-2023, 00:27:49,    205,    0.0,   10.5,   0.00,   0.00, 1010.6,    0.0, -999.0
07-05-2023, 00:27:59,    204,    0.0,   10.3,   0.00,   0.00, 1010.6,    0.0, -999.0
07-05-2023, 00:28:08,    205,    0.0,   10.5,   0.00,   0.00, 1010.6,    0.0, -999.0
07-05-2023, 00:28:19,    205,    0.0,   10.4,   0.00,   0.00, 1010.6,    0.4, -999.0
07-05-2023, 00:28:29,    205,    0.0,   10.5,   0.00,   0.00, 1010.6,    0.6, -999.0
07-05-2023, 00:28:39,    205,    0.0,   10.5,   0.00,   0.00, 1010.6,    0.4, -999.0
07-05-2023, 00:28:48,    205,    0.0,   10.4,   0.00,   0.00, 1010.6,    0.0, -999.0
07-05-2023, 00:28:59,    205,    0.0,   10.4,   0.00,   0.00, 1010.6,    0.0, -999.0
07-05-2023, 00:29:09,    205,    0.0,   10.5,   0.00,   0.00, 1010.6,    0.4, -999.0
07-05-2023, 00:29:18,    206,    0.0,   10.5,   0.00,   0.00, 1010.6,    0.6, -999.0
07-05-2023, 00:29:28,    205,    0.0,   10.4,   0.00,   0.00, 1010.6,    0.5, -999.0
07-05-2023, 00:29:39,    205,    0.0,   10.4,   0.00,   0.00, 1010.6,    0.1, -999.0
07-05-2023, 00:29:48,    205,    0.0,   10.4,   0.00,   0.00, 1010.6,    0.5, -999.0
07-05-2023, 00:29:58,    205,    0.0,   10.4,   0.00,   0.00, 1010.6,    0.4, -999.0
07-05-2023, 00:30:08,    204,    0.0,   10.4,   0.00,   0.00, 1010.6,    0.5, -999.0
07-05-2023, 00:30:19,    204,    0.0,   10.3,   0.00,   0.00, 1010.6,    0.6, -999.0
07-05-2023, 00:30:28,    205,    0.0,   10.4,   0.00,   0.00, 1010.6,    0.3, -999.0
07-05-2023, 00:30:38,    205,    0.0,   10.4,   0.00,   0.00, 1010.6,    0.5, -999.0
07-05-2023, 00:30:49,    207,    0.6,   10.4,   0.00,   0.00, 1010.7,    0.5, -999.0
07-05-2023, 00:30:58,    207,    0.9,   10.5,   0.00,   0.00, 1010.7,    0.4, -999.0
07-05-2023, 00:31:08,    207,    0.2,   10.4,   0.00,   0.00, 1010.7,    0.6, -999.0
07-05-2023, 00:31:18,    206,    0.1,   10.4,   0.00,   0.00, 1010.7,    0.5, -999.0
07-05-2023, 00:31:29,    207,    0.0,   10.4,   0.00,   0.00, 1010.6,    0.3, -999.0
07-05-2023, 00:31:38,    206,    0.0,   10.4,   0.00,   0.00, 1010.6,    0.5, -999.0
07-05-2023, 00:31:48,    207,    0.0,   10.4,   0.00,   0.00, 1010.6,    0.5, -999.0
07-05-2023, 00:31:58,    207,    0.0,   10.3,   0.00,   0.00, 1010.6,    0.3, -999.0
07-05-2023, 00:32:08,    207,    0.0,   10.3,   0.00,   0.00, 1010.6,    0.4, -999.0
07-05-2023, 00:32:18,    207,    0.0,   10.5,   0.00,   0.00, 1010.6,    0.6, -999.0
07-05-2023, 00:32:28,    207,    0.0,   10.3,   0.00,   0.00, 1010.6,    0.3, -999.0
07-05-2023, 00:32:38,    207,    0.0,   10.3,   0.00,   0.00, 1010.6,    0.2, -999.0
07-05-2023, 00:32:48,    206,    0.0,   10.3,   0.00,   0.00, 1010.6,    0.4, -999.0
07-05-2023, 00:32:58,    207,    0.0,   10.4,   0.00,   0.00, 1010.6,    0.3, -999.0
07-05-2023, 00:33:08,    206,    0.0,   10.4,   0.00,   0.00, 1010.6,    0.5, -999.0
07-05-2023, 00:33:18,    208,    0.1,   10.4,   0.00,   0.00, 1010.7,    0.5, -999.0
07-05-2023, 00:33:28,    207,    0.0,   10.4,   0.00,   0.00, 1010.6,    0.3, -999.0
07-05-2023, 00:33:38,    207,    0.0,   10.4,   0.00,   0.00, 1010.6,    0.3, -999.0
07-05-2023, 00:33:48,    207,    0.0,   10.5,   0.00,   0.00, 1010.6,    0.3, -999.0
07-05-2023, 00:33:58,    207,    0.0,   10.4,   0.00,   0.00, 1010.6,    0.3, -999.0
07-05-2023, 00:34:08,    206,    0.4,   10.5,   0.00,   0.00, 1010.7,    0.3, -999.0
07-05-2023, 00:34:18,    206,    0.6,   10.4,   0.00,   0.00, 1010.7,    0.8, -999.0
07-05-2023, 00:34:28,    206,    0.0,   10.3,   0.00,   0.00, 1010.6,    0.3, -999.0
07-05-2023, 00:34:38,    207,    0.0,   10.4,   0.00,   0.00, 1010.6,    0.3, -999.0
07-05-2023, 00:34:48,    208,    0.0,   10.4,   0.00,   0.00, 1010.6,    0.3, -999.0
07-05-2023, 00:34:58,    207,    0.3,   10.5,   0.00,   0.00, 1010.7,    0.8, -999.0
07-05-2023, 00:35:08,    208,    0.3,   10.4,   0.00,   0.00, 1010.7,    0.7, -999.0
07-05-2023, 00:35:18,    207,    0.0,   10.4,   0.00,   0.00, 1010.6,    0.2, -999.0
07-05-2023, 00:35:28,    210,    0.3,   10.5,   0.00,   0.00, 1010.7,    0.3, -999.0
07-05-2023, 00:35:38,    211,    0.7,   10.5,   0.00,   0.00, 1010.7,    0.4, -999.0
07-05-2023, 00:35:48,    211,    0.0,   10.4,   0.00,   0.00, 1010.6,    0.3, -999.0
07-05-2023, 00:35:58,    211,    0.0,   10.4,   0.00,   0.00, 1010.6,    0.4, -999.0
07-05-2023, 00:36:08,    211,    0.0,   10.4,   0.00,   0.00, 1010.6,    0.4, -999.0
07-05-2023, 00:36:18,    211,    0.0,   10.4,   0.00,   0.00, 1010.6,    0.4, -999.0
07-05-2023, 00:36:28,    210,    0.0,   10.4,   0.00,   0.00, 1010.6,    0.3, -999.0
07-05-2023, 00:36:38,    211,    0.2,   10.4,   0.00,   0.00, 1010.7,    0.3, -999.0
07-05-2023, 00:36:48,    210,    0.2,   10.4,   0.00,   0.00, 1010.7,    0.2, -999.0
07-05-2023, 00:36:58,    211,    0.0,   10.4,   0.00,   0.00, 1010.6,    0.2, -999.0
07-05-2023, 00:37:07,    210,    0.0,   10.4,   0.00,   0.00, 1010.6,    0.3, -999.0
07-05-2023, 00:37:18,    210,    0.0,   10.4,   0.00,   0.00, 1010.6,    0.3, -999.0
07-05-2023, 00:37:28,    211,    0.0,   10.4,   0.00,   0.00, 1010.6,    0.3, -999.0
07-05-2023, 00:37:38,    210,    0.0,   10.4,   0.00,   0.00, 1010.6,    0.3, -999.0
07-05-2023, 00:37:47,    210,    0.0,   10.4,   0.00,   0.00, 1010.6,    0.5, -999.0
07-05-2023, 00:37:58,    210,    0.0,   10.4,   0.00,   0.00, 1010.6,    0.5, -999.0
07-05-2023, 00:38:08,    211,    0.0,   10.4,   0.00,   0.00, 1010.6,    0.3, -999.0
07-05-2023, 00:38:17,    210,    0.0,   10.4,   0.00,   0.00, 1010.6,    0.3, -999.0
07-05-2023, 00:38:27,    210,    0.0,   10.5,   0.00,   0.00, 1010.7,    0.4, -999.0
07-05-2023, 00:38:38,    210,    0.0,   10.4,   0.00,   0.00, 1010.6,    0.5, -999.0
07-05-2023, 00:38:48,    210,    0.0,   10.4,   0.00,   0.00, 1010.6,    0.5, -999.0
07-05-2023, 00:38:57,    210,    0.0,   10.4,   0.00,   0.00, 1010.6,    0.4, -999.0
07-05-2023, 00:39:07,    210,    0.0,   10.4,   0.00,   0.00, 1010.6,    0.6, -999.0
07-05-2023, 00:39:18,    210,    0.0,   10.4,   0.00,   0.00, 1010.6,    0.2, -999.0
07-05-2023, 00:39:27,    210,    0.0,   10.4,   0.00,   0.00, 1010.6,    0.4, -999.0
07-05-2023, 00:39:37,    211,    0.0,   10.4,   0.00,   0.00, 1010.6,    0.4, -999.0
07-05-2023, 00:39:48,    210,    0.0,   10.4,   0.00,   0.00, 1010.6,    0.3, -999.0
07-05-2023, 00:39:57,    210,    0.0,   10.4,   0.00,   0.00, 1010.6,    0.2, -999.0
07-05-2023, 00:40:07,    210,    0.0,   10.4,   0.00,   0.00, 1010.6,    0.4, -999.0
07-05-2023, 00:40:17,    211,    0.1,   10.4,   0.00,   0.00, 1010.7,    0.5, -999.0
07-05-2023, 00:40:28,    211,    0.0,   10.4,   0.00,   0.00, 1010.6,    0.4, -999.0
07-05-2023, 00:40:37,    211,    0.0,   10.4,   0.00,   0.00, 1010.6,    0.4, -999.0
07-05-2023, 00:40:47,    210,    0.9,   10.5,   0.00,   0.00, 1010.7,    0.3, -999.0
07-05-2023, 00:40:57,    210,    0.6,   10.6,   0.00,   0.00, 1010.7,    0.4, -999.0
07-05-2023, 00:41:07,    210,    0.1,   10.4,   0.00,   0.00, 1010.7,    0.5, -999.0
07-05-2023, 00:41:17,    210,    0.0,   10.3,   0.00,   0.00, 1010.6,    0.0, -999.0
07-05-2023, 00:41:27,    210,    0.0,   10.4,   0.00,   0.00, 1010.6,    0.2, -999.0
07-05-2023, 00:41:37,    210,    0.0,   10.4,   0.00,   0.00, 1010.6,    0.8, -999.0
07-05-2023, 00:41:47,    210,    0.0,   10.4,   0.00,   0.00, 1010.6,    0.6, -999.0
07-05-2023, 00:41:57,    210,    0.0,   10.3,   0.00,   0.00, 1010.6,    0.6, -999.0
07-05-2023, 00:42:07,    209,    0.0,   10.5,   0.00,   0.00, 1010.6,    0.0, -999.0
07-05-2023, 00:42:17,    210,    0.0,   10.4,   0.00,   0.00, 1010.6,    0.0, -999.0
07-05-2023, 00:42:27,    211,    0.0,   10.4,   0.00,   0.00, 1010.6,    0.0, -999.0
07-05-2023, 00:42:37,    210,    0.0,   10.5,   0.00,   0.00, 1010.6,    0.1, -999.0
07-05-2023, 00:42:47,    210,    0.0,   10.5,   0.00,   0.00, 1010.6,    0.5, -999.0
07-05-2023, 00:42:57,    211,    0.0,   10.4,   0.00,   0.00, 1010.6,    0.2, -999.0
07-05-2023, 00:43:07,    212,    0.1,   10.5,   0.00,   0.00, 1010.7,    0.4, -999.0
07-05-2023, 00:43:17,    212,    0.0,   10.5,   0.00,   0.00, 1010.6,    0.0, -999.0
07-05-2023, 00:43:27,    212,    0.0,   10.5,   0.00,   0.00, 1010.6,    0.4, -999.0
07-05-2023, 00:43:37,    211,    0.0,   10.4,   0.00,   0.00, 1010.6,    0.2, -999.0
07-05-2023, 00:43:47,    211,    0.0,   10.4,   0.00,   0.00, 1010.6,    0.2, -999.0
07-05-2023, 00:43:57,    211,    0.0,   10.4,   0.00,   0.00, 1010.6,    0.1, -999.0
07-05-2023, 00:44:07,    211,    0.0,   10.4,   0.00,   0.00, 1010.6,    0.4, -999.0
07-05-2023, 00:44:17,    212,    0.0,   10.5,   0.00,   0.00, 1010.6,    0.6, -999.0
07-05-2023, 00:44:27,    211,    0.0,   10.4,   0.00,   0.00, 1010.6,    0.3, -999.0
07-05-2023, 00:44:37,    211,    0.0,   10.4,   0.00,   0.00, 1010.6,    0.5, -999.0
07-05-2023, 00:44:49,    211,    0.0,   10.4,   0.00,   0.00, 1010.6,    0.1, -999.0
07-05-2023, 00:44:57,    211,    0.0,   10.4,   0.00,   0.00, 1010.6,    0.9, -999.0
07-05-2023, 00:45:07,    211,    0.0,   10.4,   0.00,   0.00, 1010.6,    0.2, -999.0
07-05-2023, 00:45:17,    211,    0.0,   10.4,   0.00,   0.00, 1010.6,    0.3, -999.0
07-05-2023, 00:45:27,    211,    0.0,   10.4,   0.00,   0.00, 1010.6,    0.2, -999.0
07-05-2023, 00:45:37,    212,    0.0,   10.4,   0.00,   0.00, 1010.6,    0.4, -999.0
07-05-2023, 00:45:47,    211,    0.0,   10.4,   0.00,   0.00, 1010.6,    0.3, -999.0
07-05-2023, 00:45:57,    212,    0.0,   10.4,   0.00,   0.00, 1010.6,    0.5, -999.0
07-05-2023, 00:46:06,    212,    0.0,   10.4,   0.00,   0.00, 1010.6,    0.2, -999.0
07-05-2023, 00:46:17,    212,    0.0,   10.4,   0.00,   0.00, 1010.6,    0.4, -999.0
07-05-2023, 00:46:27,    215,    0.0,   10.5,   0.00,   0.00, 1010.6,    0.3, -999.0
07-05-2023, 00:46:37,    215,    0.0,   10.3,   0.00,   0.00, 1010.6,    0.4, -999.0
07-05-2023, 00:46:46,    215,    0.0,   10.4,   0.00,   0.00, 1010.6,    0.8, -999.0